Flag Weather past 2 weeks in Florianópolis, Santa Catarina, Brazil

Now
70 °F

Passing clouds.


Feels Like: 70 °F
Forecast: 71 / 78 °F
Wind: 5 mph from Southwest

Location: Florianopolis Aeroporto

Current Time: Nov 26, 2014 at 5:54:41 AM

Latest Report: Nov 26, 2014 at 5:00 AM


Visibility: N/A

Pressure: 29.71 "Hg

Humidity: N/A

Dew point: N/A

Location of FlorianópolisLocation

Historic Weather in Florianópolis — Graph

°F

Florianópolis temperature yesterday

Maximum temperature yesterday: 77 °F (at 10:00 AM)
Minimum temperature yesterday: 72 °F (at 10:00 PM)
Average temperature yesterday: 74 °F

Past Weeks' High & Low Weather Summary

 TemperatureHumidityPressure
High90 °F (Nov 22, 5:00 PM)100% (Nov 13, 1:00 AM)30.12 "Hg (Nov 13, 1:00 AM)
Low61 °F (Nov 15, 4:00 AM)28% (Nov 17, 5:00 PM)29.68 "Hg (Nov 12, 6:00 PM)
Average74 °F73%29.94 "Hg
* Reported Nov 11 4:00 AM — Nov 26 4:00 AM, Florianópolis, Weather by CustomWeather, © 2014

Note: Actual official high and low records may vary slightly from our data, if they occured in-between our weather recording intervals... More about our weather records

Advertising

Florianópolis weather history for previous 24 hours

 ConditionsComfort  
Time TempWeatherWind HumidityBarometerVisibility
4:00 AM
Nov 26
70 °FLight rain. Partly cloudy.No windN/A29.71 "Hg5 mi
3:00 AM70 °FLight rain. Passing clouds.No windN/A29.74 "HgN/A
2:00 AM72 °FLight rain. Passing clouds.No windN/A29.74 "Hg4 mi
1:00 AM72 °FPassing clouds.3 mphN/A29.77 "Hg5 mi
12:00 AM72 °FLight rain. Passing clouds.10 mphN/A29.80 "Hg2 mi
11:00 PM
Nov 25
72 °FLight rain. Passing clouds.2 mphN/A29.83 "Hg2 mi
10:00 PM72 °FPassing clouds.No windN/A29.83 "Hg5 mi
9:00 PM73 °FPassing clouds.No windN/A29.80 "Hg4 mi
8:00 PM73 °FPassing clouds.2 mphN/A29.80 "HgN/A
7:00 PM73 °FPartly sunny.6 mph94%29.77 "HgN/A
6:00 PM73 °FBroken clouds.6 mph94%29.74 "HgN/A
5:00 PM73 °FLight rain. Broken clouds.6 mph94%29.74 "Hg4 mi
4:00 PM73 °FLight rain. Fog.5 mph100%29.80 "Hg2 mi
3:00 PM73 °FLight rain. Partly sunny.3 mph100%29.83 "Hg6 mi
2:00 PM73 °FLight rain. Partly sunny.6 mph94%29.86 "Hg5 mi
1:00 PM73 °FLight rain. Partly sunny.8 mph94%29.86 "Hg4 mi
12:05 PM75 °FLight rain. Partly sunny.12 mph89%29.86 "Hg6 mi
12:00 PM75 °FLight rain. Broken clouds.13 mph89%29.86 "HgN/A
11:00 AM77 °FBroken clouds.14 mph79%29.86 "HgN/A
10:00 AM77 °FBroken clouds.13 mph83%29.86 "HgN/A
9:00 AM75 °FBroken clouds.13 mph89%29.86 "HgN/A
8:00 AM75 °FBroken clouds.12 mph83%29.86 "HgN/A
7:00 AM73 °FBroken clouds.12 mph89%29.86 "HgN/A
6:00 AM75 °FPassing clouds.13 mph83%29.86 "HgN/A
5:00 AM73 °FPassing clouds.10 mph89%29.86 "HgN/A
Weather by CustomWeather, © 2014

See weather overviewHow to use our weather pages